Time,TemperatureF,DewpointF,PressureIn,WindDirection,WindDirectionDegrees,WindSpeedMPH,WindSpeedGustMPH,Humidity,HourlyPrecipIn,Conditions,Clouds,dailyrainin,SoftwareType,DateUTC
2013-01-13 06:40:00,43.6,43.3,30.12,WNW,292,0.0,0.0,99,0.00,,---,0.00,VWS V14.01,2013-01-13 11:40:00,
2013-01-13 06:42:00,42.9,42.9,30.09,WNW,294,0.0,0.0,100,0.00,,---,0.00,VWS V14.01,2013-01-13 11:42:00,
2013-01-13 06:44:00,42.9,42.9,30.09,WNW,294,0.0,0.0,100,0.00,,---,0.00,VWS V14.01,2013-01-13 11:44:00,
2013-01-13 06:45:00,42.9,42.9,30.09,WNW,294,0.0,0.0,100,0.00,,---,0.00,VWS V14.01,2013-01-13 11:45:00,
2013-01-13 06:46:00,42.9,42.9,30.09,WNW,294,0.0,0.0,100,0.00,,---,0.00,VWS V14.01,2013-01-13 11:46:00,
2013-01-13 06:48:00,42.9,42.9,30.09,WNW,294,0.0,0.0,100,0.00,,---,0.00,VWS V14.01,2013-01-13 11:48:00,
2013-01-13 06:54:00,42.9,42.9,30.10,WNW,294,0.0,0.0,100,0.00,,---,0.00,VWS V14.01,2013-01-13 11:54:00,
2013-01-13 06:56:00,42.9,42.9,30.10,WNW,294,0.0,0.0,100,0.00,,---,0.00,VWS V14.01,2013-01-13 11:56:00,
2013-01-13 07:00:00,42.9,42.9,30.10,WNW,294,0.0,0.0,100,0.00,,---,0.00,VWS V14.01,2013-01-13 12:00:00,
2013-01-13 07:06:00,42.9,42.9,30.09,WNW,294,0.0,0.0,100,0.00,,---,0.00,VWS V14.01,2013-01-13 12:06:00,
2013-01-13 07:08:00,42.9,42.9,30.10,WNW,294,0.0,0.0,100,0.00,,---,0.00,VWS V14.01,2013-01-13 12:08:00,
2013-01-13 07:12:00,42.9,42.9,30.10,WNW,294,0.0,0.0,100,0.00,,---,0.00,VWS V14.01,2013-01-13 12:12:00,
2013-01-13 07:14:00,42.9,42.9,30.10,WNW,294,0.0,0.0,100,0.00,,---,0.00,VWS V14.01,2013-01-13 12:14:00,
2013-01-13 07:15:00,42.9,42.9,30.10,WNW,294,0.0,0.0,100,0.00,,---,0.00,VWS V14.01,2013-01-13 12:15:00,
2013-01-13 07:22:00,42.9,42.9,30.11,WNW,294,0.0,0.0,100,0.00,,---,0.00,VWS V14.01,2013-01-13 12:22:00,
2013-01-13 07:24:00,42.9,42.9,30.11,WNW,294,0.0,0.0,100,0.00,,---,0.00,VWS V14.01,2013-01-13 12:24:00,
2013-01-13 07:28:00,42.9,42.9,30.10,WNW,294,0.0,0.0,100,0.00,,---,0.00,VWS V14.01,2013-01-13 12:28:00,
2013-01-13 07:30:00,42.9,42.9,30.10,WNW,294,0.0,0.0,100,0.00,,---,0.00,VWS V14.01,2013-01-13 12:30:00,
2013-01-13 07:36:00,42.9,42.9,30.10,WNW,294,0.0,0.0,100,0.00,,---,0.00,VWS V14.01,2013-01-13 12:36:00,
2013-01-13 07:38:00,42.9,42.9,30.10,WNW,294,0.0,0.0,100,0.00,,---,0.00,VWS V14.01,2013-01-13 12:38:00,
2013-01-13 07:40:00,42.9,42.9,30.10,WNW,294,0.0,0.0,100,0.00,,---,0.00,VWS V14.01,2013-01-13 12:40:00,
2013-01-13 07:42:00,42.9,42.9,30.10,WNW,294,0.0,0.0,100,0.00,,---,0.00,VWS V14.01,2013-01-13 12:42:00,
2013-01-13 07:45:00,43.1,43.1,30.10,WNW,294,0.0,1.0,100,0.00,,---,0.00,VWS V14.01,2013-01-13 12:45:00,
2013-01-13 07:46:00,43.1,43.1,30.10,WNW,294,0.0,0.0,100,0.00,,---,0.00,VWS V14.01,2013-01-13 12:46:00,
2013-01-13 07:50:00,43.1,43.1,30.10,WNW,294,0.0,0.0,100,0.00,,---,0.00,VWS V14.01,2013-01-13 12:50:00,
2013-01-13 07:52:00,42.9,42.9,30.10,WNW,294,0.0,0.0,100,0.00,,---,0.00,VWS V14.01,2013-01-13 12:52:00,
2013-01-13 07:56:00,43.1,43.1,30.10,WNW,295,0.0,0.0,100,0.00,,---,0.00,VWS V14.01,2013-01-13 12:56:00,
2013-01-13 07:58:00,43.1,43.1,30.10,WNW,294,0.0,0.0,100,0.00,,---,0.00,VWS V14.01,2013-01-13 12:58:00,
2013-01-13 08:02:00,43.1,43.1,30.10,WNW,294,0.0,0.0,100,0.00,,---,0.00,VWS V14.01,2013-01-13 13:02:00,
2013-01-13 08:04:00,43.1,43.1,30.10,WNW,294,0.0,0.0,100,0.00,,---,0.00,VWS V14.01,2013-01-13 13:04:00,
2013-01-13 08:08:00,43.2,43.2,30.10,WNW,294,0.0,0.0,100,0.00,,---,0.00,VWS V14.01,2013-01-13 13:08:00,
2013-01-13 08:12:00,43.2,43.2,30.10,WNW,294,0.0,0.0,100,0.00,,---,0.00,VWS V14.01,2013-01-13 13:12:00,
2013-01-13 08:16:00,43.2,43.2,30.10,WNW,294,0.0,0.0,100,0.00,,---,0.00,VWS V14.01,2013-01-13 13:16:00,
2013-01-13 08:18:00,43.3,43.3,30.10,WNW,294,0.0,0.0,100,0.00,,---,0.00,VWS V14.01,2013-01-13 13:18:00,
2013-01-13 08:20:00,43.3,43.3,30.11,WNW,294,0.0,0.0,100,0.00,,---,0.00,VWS V14.01,2013-01-13 13:20:00,
2013-01-13 08:22:00,43.3,43.3,30.11,WNW,294,0.0,0.0,100,0.00,,---,0.00,VWS V14.01,2013-01-13 13:22:00,
2013-01-13 08:26:00,43.3,43.3,30.11,WNW,294,0.0,0.0,100,0.00,,---,0.00,VWS V14.01,2013-01-13 13:26:00,
2013-01-13 08:28:00,43.3,43.3,30.11,WNW,294,0.0,0.0,100,0.00,,---,0.00,VWS V14.01,2013-01-13 13:28:00,
2013-01-13 08:30:00,43.3,43.3,30.11,WNW,294,0.0,0.0,100,0.00,,---,0.00,VWS V14.01,2013-01-13 13:30:00,
2013-01-13 08:32:00,43.5,43.5,30.11,WNW,294,0.0,0.0,100,0.00,,---,0.00,VWS V14.01,2013-01-13 13:32:00,
2013-01-13 08:36:00,43.5,43.5,30.11,WNW,294,0.0,0.0,100,0.00,,---,0.00,VWS V14.01,2013-01-13 13:36:00,
2013-01-13 08:38:00,43.5,43.5,30.11,WNW,294,0.0,0.0,100,0.00,,---,0.00,VWS V14.01,2013-01-13 13:38:00,
2013-01-13 08:40:00,43.6,43.6,30.11,WNW,294,0.0,0.0,100,0.00,,---,0.00,VWS V14.01,2013-01-13 13:40:00,
2013-01-13 08:45:00,43.6,43.6,30.11,WNW,294,0.0,0.0,100,0.00,,---,0.00,VWS V14.01,2013-01-13 13:45:00,
2013-01-13 08:48:00,43.6,43.6,30.11,WNW,294,0.0,0.0,100,0.00,,---,0.00,VWS V14.01,2013-01-13 13:48:00,
2013-01-13 08:50:00,43.8,43.8,30.11,WNW,294,0.0,0.0,100,0.00,,---,0.00,VWS V14.01,2013-01-13 13:50:00,
2013-01-13 08:52:00,43.8,43.8,30.12,WNW,294,0.0,0.0,100,0.00,,---,0.00,VWS V14.01,2013-01-13 13:52:00,
2013-01-13 08:58:00,43.8,43.8,30.11,WNW,294,0.0,2.0,100,0.00,,---,0.00,VWS V14.01,2013-01-13 13:58:00,
2013-01-13 09:00:00,43.8,43.8,30.11,WNW,294,1.0,2.0,100,0.00,,---,0.00,VWS V14.01,2013-01-13 14:00:00,
2013-01-13 09:02:00,43.8,43.8,30.11,WNW,294,0.0,1.0,100,0.00,,---,0.00,VWS V14.01,2013-01-13 14:02:00,
2013-01-13 09:04:00,43.8,43.8,30.11,WNW,294,0.0,1.0,100,0.00,,---,0.00,VWS V14.01,2013-01-13 14:04:00,
2013-01-13 09:08:00,43.9,43.9,30.11,SSE,155,0.0,3.0,100,0.00,,---,0.00,VWS V14.01,2013-01-13 14:08:00,
2013-01-13 09:10:00,43.9,43.9,30.11,SSE,155,0.0,3.0,100,0.00,,---,0.00,VWS V14.01,2013-01-13 14:10:00,
2013-01-13 09:15:00,44.1,44.1,30.12,SSE,155,0.0,3.0,100,0.00,,---,0.00,VWS V14.01,2013-01-13 14:15:00,
2013-01-13 09:18:00,44.1,44.1,30.12,SSE,155,0.0,0.0,100,0.00,,---,0.00,VWS V14.01,2013-01-13 14:18:00,
2013-01-13 09:22:00,44.1,44.1,30.11,SSE,155,0.0,2.0,100,0.00,,---,0.00,VWS V14.01,2013-01-13 14:22:00,
2013-01-13 09:24:00,44.1,44.1,30.11,East,89,2.0,2.0,100,0.00,,---,0.00,VWS V14.01,2013-01-13 14:24:00,
2013-01-13 09:30:00,44.1,44.1,30.12,East,96,0.0,2.0,100,0.00,,---,0.00,VWS V14.01,2013-01-13 14:30:00,
2013-01-13 09:32:00,44.2,44.2,30.12,SE,134,3.0,3.0,100,0.00,,---,0.00,VWS V14.01,2013-01-13 14:32:00,
2013-01-13 09:36:00,44.2,44.2,30.13,SE,140,0.0,3.0,100,0.00,,---,0.00,VWS V14.01,2013-01-13 14:36:00,
2013-01-13 09:38:00,44.2,44.2,30.12,SE,140,0.0,3.0,100,0.00,,---,0.00,VWS V14.01,2013-01-13 14:38:00,
2013-01-13 09:42:00,44.2,44.2,30.13,SE,140,0.0,3.0,100,0.00,,---,0.00,VWS V14.01,2013-01-13 14:42:00,
2013-01-13 09:44:00,44.2,44.2,30.13,SE,140,0.0,3.0,100,0.00,,---,0.00,VWS V14.01,2013-01-13 14:44:00,
2013-01-13 09:45:00,44.2,44.2,30.13,SE,140,0.0,3.0,100,0.00,,---,0.00,VWS V14.01,2013-01-13 14:45:00,
2013-01-13 09:48:00,44.3,44.3,30.13,SE,140,0.0,0.0,100,0.00,,---,0.00,VWS V14.01,2013-01-13 14:48:00,
2013-01-13 09:52:00,44.3,44.3,30.13,SE,140,1.0,1.0,100,0.00,,---,0.00,VWS V14.01,2013-01-13 14:52:00,
2013-01-13 09:54:00,44.3,44.3,30.12,SE,140,0.0,1.0,100,0.00,,---,0.00,VWS V14.01,2013-01-13 14:54:00,
2013-01-13 10:00:00,44.5,44.5,30.13,SE,140,0.0,1.0,100,0.00,,---,0.00,VWS V14.01,2013-01-13 15:00:00,
2013-01-13 10:02:00,44.5,44.5,30.12,SE,140,0.0,0.0,100,0.00,,---,0.00,VWS V14.01,2013-01-13 15:02:00,
2013-01-13 10:04:00,44.6,44.6,30.12,SE,140,0.0,2.0,100,0.00,,---,0.00,VWS V14.01,2013-01-13 15:04:00,
2013-01-13 10:08:00,44.6,44.6,30.13,East,95,0.0,3.0,100,0.00,,---,0.00,VWS V14.01,2013-01-13 15:08:00,
2013-01-13 10:13:00,44.5,44.5,30.13,SSE,166,0.0,3.0,100,0.00,,---,0.00,VWS V14.01,2013-01-13 15:13:00,
2013-01-13 10:15:00,44.5,44.5,30.13,SSE,166,1.0,3.0,100,0.00,,---,0.00,VWS V14.01,2013-01-13 15:15:00,
2013-01-13 10:19:00,44.6,44.6,30.12,ENE,78,1.0,3.0,100,0.00,,---,0.00,VWS V14.01,2013-01-13 15:19:00,
2013-01-13 10:21:00,44.6,44.6,30.12,East,79,1.0,3.0,100,0.00,,---,0.00,VWS V14.01,2013-01-13 15:21:00,
2013-01-13 10:23:00,44.6,44.6,30.13,East,79,0.0,3.0,100,0.00,,---,0.00,VWS V14.01,2013-01-13 15:23:00,
2013-01-13 10:29:00,44.8,44.8,30.13,East,98,0.0,3.0,100,0.00,,---,0.00,VWS V14.01,2013-01-13 15:29:00,
2013-01-13 10:30:00,44.8,44.8,30.13,SE,140,0.0,3.0,100,0.00,,---,0.00,VWS V14.01,2013-01-13 15:30:00,
2013-01-13 10:33:00,44.8,44.8,30.13,SSE,160,1.0,4.0,100,0.00,,---,0.00,VWS V14.01,2013-01-13 15:33:00,
2013-01-13 10:35:00,44.9,44.9,30.13,South,180,0.0,4.0,100,0.00,,---,0.00,VWS V14.01,2013-01-13 15:35:00,
2013-01-13 10:41:00,44.8,44.8,30.12,SSE,159,2.0,5.0,100,0.00,,---,0.00,VWS V14.01,2013-01-13 15:41:00,
2013-01-13 10:43:00,44.8,44.8,30.12,SSE,159,0.0,5.0,100,0.00,,---,0.00,VWS V14.01,2013-01-13 15:43:00,
2013-01-13 10:45:00,44.9,44.9,30.12,SSE,159,0.0,5.0,100,0.00,,---,0.00,VWS V14.01,2013-01-13 15:45:00,
2013-01-13 10:49:00,45.1,45.1,30.12,SSE,162,0.0,2.0,100,0.00,,---,0.00,VWS V14.01,2013-01-13 15:49:00,
2013-01-13 10:51:00,45.1,45.1,30.12,SSE,162,0.0,2.0,100,0.00,,---,0.00,VWS V14.01,2013-01-13 15:51:00,
2013-01-13 10:55:00,45.1,45.1,30.13,SSE,162,0.0,2.0,100,0.00,,---,0.00,VWS V14.01,2013-01-13 15:55:00,
2013-01-13 10:57:00,45.1,45.1,30.13,SW,217,2.0,4.0,100,0.00,,---,0.00,VWS V14.01,2013-01-13 15:57:00,
2013-01-13 10:59:00,45.1,45.1,30.12,South,178,0.0,4.0,100,0.00,,---,0.00,VWS V14.01,2013-01-13 15:59:00,
2013-01-13 11:05:00,45.1,45.1,30.11,ESE,108,1.0,4.0,100,0.00,,---,0.00,VWS V14.01,2013-01-13 16:05:00,
2013-01-13 11:11:00,44.9,44.9,30.10,ESE,121,2.0,4.0,100,0.00,,---,0.00,VWS V14.01,2013-01-13 16:11:00,
2013-01-13 11:13:00,45.1,45.1,30.10,South,185,1.0,4.0,100,0.00,,---,0.00,VWS V14.01,2013-01-13 16:13:00,
2013-01-13 11:15:00,44.9,44.9,30.11,South,190,0.0,4.0,100,0.00,,---,0.00,VWS V14.01,2013-01-13 16:15:00,
2013-01-13 11:17:00,45.1,45.1,30.11,South,190,2.0,2.0,100,0.00,,---,0.00,VWS V14.01,2013-01-13 16:17:00,
2013-01-13 11:21:00,44.9,44.9,30.11,SSE,161,0.0,4.0,100,0.00,,---,0.00,VWS V14.01,2013-01-13 16:21:00,
2013-01-13 11:25:00,45.1,45.1,30.11,SSE,161,0.0,4.0,100,0.00,,---,0.00,VWS V14.01,2013-01-13 16:25:00,
2013-01-13 11:29:00,45.2,45.2,30.11,ENE,59,2.0,4.0,100,0.00,,---,0.00,VWS V14.01,2013-01-13 16:29:00,
2013-01-13 11:33:00,45.2,45.2,30.10,ESE,120,0.0,1.0,100,0.00,,---,0.00,VWS V14.01,2013-01-13 16:33:00,
2013-01-13 11:35:00,45.2,45.2,30.10,ESE,120,1.0,2.0,100,0.00,,---,0.00,VWS V14.01,2013-01-13 16:35:00,
2013-01-13 11:39:00,45.2,45.2,30.09,ESE,120,0.0,2.0,100,0.00,,---,0.00,VWS V14.01,2013-01-13 16:39:00,
2013-01-13 11:41:00,45.2,45.2,30.09,ESE,120,0.0,2.0,100,0.00,,---,0.00,VWS V14.01,2013-01-13 16:41:00,
2013-01-13 11:45:00,45.2,45.2,30.10,ESE,120,0.0,2.0,100,0.00,,---,0.00,VWS V14.01,2013-01-13 16:45:00,
2013-01-13 11:49:00,45.4,45.4,30.09,ESE,120,0.0,0.0,100,0.00,,---,0.00,VWS V14.01,2013-01-13 16:49:00,
2013-01-13 11:55:00,45.5,45.5,30.09,South,171,0.0,2.0,100,0.00,,---,0.00,VWS V14.01,2013-01-13 16:55:00,
2013-01-13 11:59:00,45.5,45.5,30.09,South,171,0.0,2.0,100,0.00,,---,0.00,VWS V14.01,2013-01-13 16:59:00,
2013-01-13 12:00:00,45.7,45.7,30.09,South,171,0.0,2.0,100,0.00,,---,0.00,VWS V14.01,2013-01-13 17:00:00,
2013-01-13 12:01:00,45.7,45.7,30.09,South,171,0.0,0.0,100,0.00,,---,0.00,VWS V14.01,2013-01-13 17:01:00,
2013-01-13 12:05:00,45.7,45.7,30.09,South,171,0.0,1.0,100,0.00,,---,0.00,VWS V14.01,2013-01-13 17:05:00,
2013-01-13 12:07:00,45.7,45.7,30.09,South,171,2.0,2.0,100,0.00,,---,0.00,VWS V14.01,2013-01-13 17:07:00,
2013-01-13 12:13:00,45.7,45.7,30.08,South,171,0.0,3.0,100,0.00,,---,0.00,VWS V14.01,2013-01-13 17:13:00,
2013-01-13 12:15:00,45.7,45.7,30.08,South,171,0.0,3.0,100,0.00,,---,0.00,VWS V14.01,2013-01-13 17:15:00,
2013-01-13 12:19:00,45.7,45.7,30.08,South,171,0.0,2.0,100,0.00,,---,0.00,VWS V14.01,2013-01-13 17:19:00,
2013-01-13 12:21:00,45.7,45.7,30.08,South,171,0.0,2.0,100,0.00,,---,0.00,VWS V14.01,2013-01-13 17:21:00,
2013-01-13 12:25:00,45.8,45.8,30.08,South,171,0.0,2.0,100,0.00,,---,0.00,VWS V14.01,2013-01-13 17:25:00,
2013-01-13 12:27:00,45.8,45.8,30.08,South,171,0.0,2.0,100,0.00,,---,0.00,VWS V14.01,2013-01-13 17:27:00,
2013-01-13 12:29:00,45.8,45.8,30.08,South,171,0.0,2.0,100,0.00,,---,0.00,VWS V14.01,2013-01-13 17:29:00,
2013-01-13 12:31:00,45.8,45.8,30.08,South,171,0.0,0.0,100,0.00,,---,0.00,VWS V14.01,2013-01-13 17:31:00,
2013-01-13 12:37:00,45.8,45.8,30.08,South,171,0.0,1.0,100,0.00,,---,0.00,VWS V14.01,2013-01-13 17:37:00,
2013-01-13 12:39:00,45.8,45.8,30.08,South,171,0.0,1.0,100,0.00,,---,0.00,VWS V14.01,2013-01-13 17:39:00,
2013-01-13 12:43:00,45.8,45.8,30.07,South,171,1.0,1.0,100,0.00,,---,0.00,VWS V14.01,2013-01-13 17:43:00,
2013-01-13 12:45:00,45.8,45.8,30.07,East,94,2.0,2.0,100,0.00,,---,0.00,VWS V14.01,2013-01-13 17:45:00,
2013-01-13 12:49:00,45.8,45.8,30.07,East,94,0.0,2.0,100,0.00,,---,0.00,VWS V14.01,2013-01-13 17:49:00,
2013-01-13 12:55:00,46.0,46.0,30.07,East,94,0.0,2.0,100,0.00,,---,0.00,VWS V14.01,2013-01-13 17:55:00,
2013-01-13 12:57:00,46.1,46.1,30.06,East,94,1.0,2.0,100,0.00,,---,0.00,VWS V14.01,2013-01-13 17:57:00,
2013-01-13 12:59:00,46.1,46.1,30.06,East,94,0.0,2.0,100,0.00,,---,0.00,VWS V14.01,2013-01-13 17:59:00,
2013-01-13 13:05:00,46.2,46.2,30.06,SE,137,0.0,2.0,100,0.00,,---,0.00,VWS V14.01,2013-01-13 18:05:00,
2013-01-13 13:07:00,46.2,46.2,30.06,SE,137,0.0,2.0,100,0.00,,---,0.00,VWS V14.01,2013-01-13 18:07:00,
2013-01-13 13:11:00,46.4,46.4,30.05,SE,137,0.0,2.0,100,0.00,,---,0.00,VWS V14.01,2013-01-13 18:11:00,
2013-01-13 13:13:00,46.4,46.4,30.05,SSE,152,0.0,2.0,100,0.00,,---,0.00,VWS V14.01,2013-01-13 18:13:00,
2013-01-13 13:17:00,46.4,46.4,30.05,East,98,3.0,3.0,100,0.00,,---,0.00,VWS V14.01,2013-01-13 18:17:00,
2013-01-13 13:19:00,46.4,46.4,30.05,ESE,111,0.0,3.0,100,0.00,,---,0.00,VWS V14.01,2013-01-13 18:19:00,
2013-01-13 13:25:00,46.7,46.7,30.04,SSE,168,1.0,3.0,100,0.00,,---,0.00,VWS V14.01,2013-01-13 18:25:00,
2013-01-13 13:29:00,46.7,46.7,30.04,SSE,159,3.0,4.0,100,0.00,,---,0.00,VWS V14.01,2013-01-13 18:29:00,
2013-01-13 13:30:00,46.7,46.7,30.04,SSE,159,0.0,4.0,100,0.00,,---,0.00,VWS V14.01,2013-01-13 18:30:00,
2013-01-13 13:33:00,46.7,46.7,30.05,SSE,165,1.0,4.0,100,0.00,,---,0.00,VWS V14.01,2013-01-13 18:33:00,
2013-01-13 13:35:00,46.7,46.7,30.05,East,90,0.0,4.0,100,0.00,,---,0.00,VWS V14.01,2013-01-13 18:35:00,
2013-01-13 13:37:00,46.5,46.5,30.04,East,94,0.0,4.0,100,0.00,,---,0.00,VWS V14.01,2013-01-13 18:37:00,
2013-01-13 13:39:00,46.5,46.5,30.05,SSE,157,1.0,4.0,100,0.00,,---,0.00,VWS V14.01,2013-01-13 18:39:00,
2013-01-13 13:43:00,46.5,46.5,30.04,SSE,157,0.0,4.0,100,0.00,,---,0.00,VWS V14.01,2013-01-13 18:43:00,
2013-01-13 13:45:00,46.7,46.7,30.04,SSE,163,0.0,4.0,100,0.00,,---,0.00,VWS V14.01,2013-01-13 18:45:00,
2013-01-13 13:49:00,46.7,46.7,30.04,SSE,148,0.0,4.0,100,0.00,,---,0.00,VWS V14.01,2013-01-13 18:49:00,
2013-01-13 13:53:00,46.7,46.7,30.05,SSE,148,0.0,4.0,100,0.00,,---,0.00,VWS V14.01,2013-01-13 18:53:00,
2013-01-13 13:55:00,46.7,46.7,30.05,SSE,149,1.0,4.0,100,0.00,,---,0.00,VWS V14.01,2013-01-13 18:55:00,
2013-01-13 13:59:00,46.7,46.7,30.05,SSE,148,0.0,4.0,100,0.00,,---,0.00,VWS V14.01,2013-01-13 18:59:00,
2013-01-13 14:01:00,46.7,46.7,30.04,SSE,148,0.0,1.0,100,0.00,,---,0.00,VWS V14.01,2013-01-13 19:01:00,
2013-01-13 14:05:00,46.7,46.7,30.04,SSE,149,0.0,1.0,100,0.00,,---,0.00,VWS V14.01,2013-01-13 19:05:00,
2013-01-13 14:09:00,46.7,46.7,30.05,SSE,149,1.0,1.0,100,0.00,,---,0.00,VWS V14.01,2013-01-13 19:09:00,
2013-01-13 14:11:00,46.7,46.7,30.05,SSE,149,1.0,1.0,100,0.00,,---,0.00,VWS V14.01,2013-01-13 19:11:00,
2013-01-13 14:13:00,46.7,46.7,30.05,SSE,149,0.0,3.0,100,0.00,,---,0.00,VWS V14.01,2013-01-13 19:13:00,
2013-01-13 14:19:00,46.8,46.8,30.04,East,92,2.0,2.0,100,0.00,,---,0.00,VWS V14.01,2013-01-13 19:19:00,
2013-01-13 14:23:00,46.7,46.7,30.05,SE,146,0.0,3.0,100,0.00,,---,0.00,VWS V14.01,2013-01-13 19:23:00,
2013-01-13 14:25:00,46.8,46.8,30.05,South,180,0.0,3.0,100,0.00,,---,0.00,VWS V14.01,2013-01-13 19:25:00,
2013-01-13 14:29:00,46.8,46.8,30.05,SSE,162,4.0,4.0,100,0.00,,---,0.00,VWS V14.01,2013-01-13 19:29:00,
2013-01-13 14:30:00,46.8,46.8,30.05,SE,146,3.0,5.0,100,0.00,,---,0.00,VWS V14.01,2013-01-13 19:30:00,
2013-01-13 14:31:00,46.8,46.8,30.05,SE,146,0.0,3.0,100,0.00,,---,0.00,VWS V14.01,2013-01-13 19:31:00,
2013-01-13 14:35:00,46.8,46.8,30.05,SE,146,0.0,3.0,100,0.00,,---,0.00,VWS V14.01,2013-01-13 19:35:00,
2013-01-13 14:39:00,46.8,46.8,30.05,East,84,0.0,3.0,100,0.00,,---,0.00,VWS V14.01,2013-01-13 19:39:00,
2013-01-13 14:41:00,46.8,46.8,30.05,East,84,0.0,3.0,100,0.00,,---,0.00,VWS V14.01,2013-01-13 19:41:00,
2013-01-13 14:45:00,46.8,46.8,30.05,East,84,0.0,0.0,100,0.00,,---,0.00,VWS V14.01,2013-01-13 19:45:00,
2013-01-13 14:49:00,47.0,47.0,30.05,East,84,0.0,0.0,100,0.00,,---,0.00,VWS V14.01,2013-01-13 19:49:00,
2013-01-13 14:51:00,47.0,47.0,30.05,East,84,0.0,0.0,100,0.00,,---,0.00,VWS V14.01,2013-01-13 19:51:00,
2013-01-13 14:55:00,47.0,47.0,30.05,East,84,0.0,2.0,100,0.00,,---,0.00,VWS V14.01,2013-01-13 19:55:00,
2013-01-13 15:00:00,46.8,46.8,30.04,SSE,152,2.0,2.0,100,0.00,,---,0.00,VWS V14.01,2013-01-13 20:00:00,
2013-01-13 15:01:00,46.8,46.8,30.04,ESE,107,0.0,2.0,100,0.00,,---,0.00,VWS V14.01,2013-01-13 20:01:00,
2013-01-13 15:05:00,46.8,46.8,30.04,SE,132,0.0,2.0,100,0.00,,---,0.00,VWS V14.01,2013-01-13 20:05:00,
2013-01-13 15:07:00,46.8,46.8,30.03,SSE,159,1.0,4.0,100,0.00,,---,0.00,VWS V14.01,2013-01-13 20:07:00,
2013-01-13 15:13:00,46.8,46.8,30.03,ENE,70,1.0,4.0,100,0.00,,---,0.00,VWS V14.01,2013-01-13 20:13:00,
2013-01-13 15:15:00,46.8,46.8,30.03,SSE,160,0.0,4.0,100,0.00,,---,0.00,VWS V14.01,2013-01-13 20:15:00,
2013-01-13 15:19:00,46.8,46.8,30.03,SSE,161,0.0,3.0,100,0.00,,---,0.00,VWS V14.01,2013-01-13 20:19:00,
2013-01-13 15:21:00,47.0,47.0,30.03,SSE,161,0.0,3.0,100,0.00,,---,0.00,VWS V14.01,2013-01-13 20:21:00,
2013-01-13 15:23:00,47.0,47.0,30.03,SSE,163,0.0,3.0,100,0.00,,---,0.00,VWS V14.01,2013-01-13 20:23:00,
2013-01-13 15:29:00,47.0,47.0,30.04,SE,145,0.0,3.0,100,0.00,,---,0.00,VWS V14.01,2013-01-13 20:29:00,
2013-01-13 15:30:00,47.0,47.0,30.04,SE,145,1.0,3.0,100,0.00,,---,0.00,VWS V14.01,2013-01-13 20:30:00,
2013-01-13 15:31:00,47.0,47.0,30.03,SE,145,0.0,1.0,100,0.00,,---,0.00,VWS V14.01,2013-01-13 20:31:00,
2013-01-13 15:36:00,47.0,47.0,30.03,SSE,167,0.0,2.0,100,0.00,,---,0.00,VWS V14.01,2013-01-13 20:36:00,
2013-01-13 15:38:00,47.0,47.0,30.03,SSE,167,0.0,2.0,100,0.00,,---,0.00,VWS V14.01,2013-01-13 20:38:00,
2013-01-13 15:40:00,47.0,47.0,30.03,SSE,167,2.0,2.0,100,0.00,,---,0.00,VWS V14.01,2013-01-13 20:40:00,
2013-01-13 15:45:00,47.0,47.0,30.04,South,186,0.0,4.0,100,0.00,,---,0.00,VWS V14.01,2013-01-13 20:45:00,
2013-01-13 15:48:00,47.0,47.0,30.04,South,186,0.0,2.0,100,0.00,,---,0.00,VWS V14.01,2013-01-13 20:48:00,
2013-01-13 15:52:00,47.1,47.1,30.03,South,186,0.0,2.0,100,0.00,,---,0.00,VWS V14.01,2013-01-13 20:52:00,
2013-01-13 15:58:00,47.1,47.1,30.03,South,186,0.0,2.0,100,0.00,,---,0.00,VWS V14.01,2013-01-13 20:58:00,
2013-01-13 16:00:00,47.1,47.1,30.04,South,186,1.0,2.0,100,0.00,,---,0.00,VWS V14.01,2013-01-13 21:00:00,
2013-01-13 16:02:00,47.1,47.1,30.03,South,186,0.0,1.0,100,0.00,,---,0.00,VWS V14.01,2013-01-13 21:02:00,
2013-01-13 16:04:00,47.1,47.1,30.03,South,186,0.0,1.0,100,0.00,,---,0.00,VWS V14.01,2013-01-13 21:04:00,
2013-01-13 16:06:00,47.1,47.1,30.03,South,186,0.0,1.0,100,0.00,,---,0.00,VWS V14.01,2013-01-13 21:06:00,
2013-01-13 16:10:00,47.1,47.1,30.03,South,186,0.0,1.0,100,0.00,,---,0.00,VWS V14.01,2013-01-13 21:10:00,
2013-01-13 16:15:00,47.1,47.1,30.02,South,186,0.0,1.0,100,0.00,,---,0.00,VWS V14.01,2013-01-13 21:15:00,
2013-01-13 16:16:00,47.1,47.1,30.02,South,186,0.0,0.0,100,0.00,,---,0.00,VWS V14.01,2013-01-13 21:16:00,
2013-01-13 16:18:00,47.1,47.1,30.02,South,185,2.0,2.0,100,0.00,,---,0.00,VWS V14.01,2013-01-13 21:18:00,
2013-01-13 16:22:00,47.1,47.1,30.04,South,184,0.0,2.0,100,0.00,,---,0.00,VWS V14.01,2013-01-13 21:22:00,
2013-01-13 16:26:00,47.1,47.1,30.04,South,184,0.0,2.0,100,0.00,,---,0.00,VWS V14.01,2013-01-13 21:26:00,
2013-01-13 16:28:00,47.1,47.1,30.04,South,184,0.0,2.0,100,0.00,,---,0.00,VWS V14.01,2013-01-13 21:28:00,
2013-01-13 16:32:00,47.1,47.1,30.03,South,184,0.0,1.0,100,0.00,,---,0.00,VWS V14.01,2013-01-13 21:32:00,
2013-01-13 16:34:00,47.1,47.1,30.03,South,184,0.0,1.0,100,0.00,,---,0.00,VWS V14.01,2013-01-13 21:34:00,
2013-01-13 16:38:00,47.3,47.3,30.03,South,184,0.0,1.0,100,0.00,,---,0.00,VWS V14.01,2013-01-13 21:38:00,
2013-01-13 16:40:00,47.3,47.3,30.03,South,184,0.0,1.0,100,0.00,,---,0.00,VWS V14.01,2013-01-13 21:40:00,
2013-01-13 16:42:00,47.3,47.3,30.03,South,184,0.0,1.0,100,0.00,,---,0.00,VWS V14.01,2013-01-13 21:42:00,
2013-01-13 16:45:00,47.3,47.3,30.04,South,184,0.0,1.0,100,0.00,,---,0.00,VWS V14.01,2013-01-13 21:45:00,
2013-01-13 16:46:00,47.1,47.1,30.04,South,184,0.0,0.0,100,0.00,,---,0.00,VWS V14.01,2013-01-13 21:46:00,
2013-01-13 16:50:00,47.3,47.3,30.04,South,184,0.0,0.0,100,0.00,,---,0.00,VWS V14.01,2013-01-13 21:50:00,
2013-01-13 16:52:00,47.3,47.3,30.04,South,184,0.0,0.0,100,0.00,,---,0.00,VWS V14.01,2013-01-13 21:52:00,
2013-01-13 16:56:00,47.3,47.3,30.02,South,184,0.0,2.0,100,0.00,,---,0.00,VWS V14.01,2013-01-13 21:56:00,
2013-01-13 16:58:00,47.3,47.3,30.03,South,184,0.0,2.0,100,0.00,,---,0.00,VWS V14.01,2013-01-13 21:58:00,
2013-01-13 17:04:00,47.3,47.3,30.03,South,184,0.0,0.0,100,0.00,,---,0.00,VWS V14.01,2013-01-13 22:04:00,
2013-01-13 17:08:00,47.3,47.3,30.03,South,184,0.0,1.0,100,0.00,,---,0.00,VWS V14.01,2013-01-13 22:08:00,
2013-01-13 17:10:00,47.3,47.3,30.03,South,184,0.0,1.0,100,0.00,,---,0.00,VWS V14.01,2013-01-13 22:10:00,
2013-01-13 17:15:00,47.3,47.3,30.03,South,184,0.0,1.0,100,0.00,,---,0.00,VWS V14.01,2013-01-13 22:15:00,
2013-01-13 17:16:00,47.3,47.3,30.03,South,184,0.0,0.0,100,0.00,,---,0.00,VWS V14.01,2013-01-13 22:16:00,
2013-01-13 17:18:00,47.3,47.3,30.03,South,184,0.0,0.0,100,0.00,,---,0.00,VWS V14.01,2013-01-13 22:18:00,
2013-01-13 17:22:00,47.3,47.3,30.02,South,184,0.0,1.0,100,0.00,,---,0.00,VWS V14.01,2013-01-13 22:22:00,
2013-01-13 17:26:00,47.3,47.3,30.01,South,183,0.0,2.0,100,0.00,,---,0.00,VWS V14.01,2013-01-13 22:26:00,
2013-01-13 17:30:00,47.3,47.3,30.02,South,183,0.0,2.0,100,0.00,,---,0.00,VWS V14.01,2013-01-13 22:30:00,
2013-01-13 17:32:00,47.3,47.3,30.02,South,183,0.0,0.0,100,0.00,,---,0.00,VWS V14.01,2013-01-13 22:32:00,
2013-01-13 17:36:00,47.3,47.3,30.02,South,183,0.0,1.0,100,0.00,,---,0.00,VWS V14.01,2013-01-13 22:36:00,
2013-01-13 17:38:00,47.3,47.3,30.03,South,183,0.0,1.0,100,0.00,,---,0.00,VWS V14.01,2013-01-13 22:38:00,
2013-01-13 17:44:00,47.3,47.3,30.02,South,183,0.0,1.0,100,0.00,,---,0.00,VWS V14.01,2013-01-13 22:44:00,
2013-01-13 17:45:00,47.3,47.3,30.02,South,183,0.0,1.0,100,0.00,,---,0.00,VWS V14.01,2013-01-13 22:45:00,
2013-01-13 17:46:00,47.3,47.3,30.02,South,183,0.0,0.0,100,0.00,,---,0.00,VWS V14.01,2013-01-13 22:46:00,
2013-01-13 17:50:00,47.3,47.3,30.03,South,183,0.0,1.0,100,0.00,,---,0.00,VWS V14.01,2013-01-13 22:50:00,
2013-01-13 17:52:00,47.3,47.3,30.03,South,183,0.0,1.0,100,0.00,,---,0.00,VWS V14.01,2013-01-13 22:52:00,
2013-01-13 17:54:00,47.3,47.3,30.03,South,183,0.0,1.0,100,0.00,,---,0.00,VWS V14.01,2013-01-13 22:54:00,
2013-01-13 18:00:00,47.3,47.3,30.01,South,183,0.0,1.0,100,0.00,,---,0.00,VWS V14.01,2013-01-13 23:00:00,
2013-01-13 18:02:00,47.3,47.3,30.02,South,183,0.0,0.0,100,0.00,,---,0.00,VWS V14.01,2013-01-13 23:02:00,
2013-01-13 18:08:00,47.3,47.3,30.03,South,183,0.0,0.0,100,0.00,,---,0.00,VWS V14.01,2013-01-13 23:08:00,
2013-01-13 18:12:00,47.1,47.1,30.02,South,183,0.0,0.0,100,0.00,,---,0.00,VWS V14.01,2013-01-13 23:12:00,
2013-01-13 18:15:00,47.1,47.1,30.02,South,183,0.0,0.0,100,0.00,,---,0.00,VWS V14.01,2013-01-13 23:15:00,
2013-01-13 18:16:00,47.1,47.1,30.02,South,183,0.0,0.0,100,0.00,,---,0.00,VWS V14.01,2013-01-13 23:16:00,
2013-01-13 18:18:00,47.1,47.1,30.03,South,183,0.0,0.0,100,0.00,,---,0.00,VWS V14.01,2013-01-13 23:18:00,
2013-01-13 18:22:00,47.1,47.1,30.02,South,183,0.0,0.0,100,0.00,,---,0.00,VWS V14.01,2013-01-13 23:22:00,
2013-01-13 18:26:00,47.1,47.1,30.02,South,183,0.0,0.0,100,0.00,,---,0.00,VWS V14.01,2013-01-13 23:26:00,
2013-01-13 18:28:00,47.1,47.1,30.02,South,183,0.0,0.0,100,0.00,,---,0.00,VWS V14.01,2013-01-13 23:28:00,
2013-01-13 18:32:00,47.1,47.1,30.02,South,183,0.0,0.0,100,0.00,,---,0.00,VWS V14.01,2013-01-13 23:32:00,
2013-01-13 18:34:00,47.1,47.1,30.03,South,183,0.0,0.0,100,0.00,,---,0.00,VWS V14.01,2013-01-13 23:34:00,
2013-01-13 18:36:00,47.1,47.1,30.03,South,183,0.0,0.0,100,0.00,,---,0.00,VWS V14.01,2013-01-13 23:36:00,
2013-01-13 18:40:00,47.0,47.0,30.02,South,183,0.0,0.0,100,0.00,,---,0.00,VWS V14.01,2013-01-13 23:40:00,
2013-01-13 18:42:00,47.0,47.0,30.02,South,183,0.0,0.0,100,0.00,,---,0.00,VWS V14.01,2013-01-13 23:42:00,
2013-01-13 18:45:00,47.0,47.0,30.01,South,183,0.0,0.0,100,0.00,,---,0.00,VWS V14.01,2013-01-13 23:45:00,
2013-01-13 18:48:00,47.0,47.0,30.01,South,183,0.0,0.0,100,0.00,,---,0.00,VWS V14.01,2013-01-13 23:48:00,
2013-01-13 18:52:00,47.0,47.0,30.02,South,183,0.0,0.0,100,0.00,,---,0.00,VWS V14.01,2013-01-13 23:52:00,
2013-01-13 18:54:00,47.0,47.0,30.02,South,183,0.0,0.0,100,0.00,,---,0.00,VWS V14.01,2013-01-13 23:54:00,
2013-01-13 18:56:00,47.0,47.0,30.02,South,183,0.0,0.0,100,0.00,,---,0.00,VWS V14.01,2013-01-13 23:56:00,
2013-01-13 18:58:00,47.0,47.0,30.02,South,183,0.0,0.0,100,0.00,,---,0.00,VWS V14.01,2013-01-13 23:58:00,
2013-01-13 19:00:00,47.0,47.0,30.02,South,183,0.0,0.0,100,0.00,,---,0.00,VWS V14.01,2013-01-14 00:00:00,
2013-01-13 19:06:00,47.0,47.0,30.02,South,183,0.0,0.0,100,0.00,,---,0.00,VWS V14.01,2013-01-14 00:06:00,
2013-01-13 19:10:00,47.0,47.0,30.02,South,183,0.0,0.0,100,0.00,,---,0.00,VWS V14.01,2013-01-14 00:10:00,
2013-01-13 19:12:00,47.0,47.0,30.03,South,183,0.0,1.0,100,0.00,,---,0.00,VWS V14.01,2013-01-14 00:12:00,
2013-01-13 19:15:00,46.8,46.8,30.03,South,183,0.0,1.0,100,0.00,,---,0.00,VWS V14.01,2013-01-14 00:15:00,
2013-01-13 19:20:00,46.8,46.8,30.02,South,183,0.0,1.0,100,0.00,,---,0.00,VWS V14.01,2013-01-14 00:20:00,
2013-01-13 19:22:00,46.8,46.8,30.01,South,183,0.0,1.0,100,0.00,,---,0.00,VWS V14.01,2013-01-14 00:22:00,
2013-01-13 19:26:00,46.8,46.8,30.01,South,183,0.0,1.0,100,0.00,,---,0.00,VWS V14.01,2013-01-14 00:26:00,
2013-01-13 19:28:00,46.8,46.8,30.02,South,183,0.0,1.0,100,0.00,,---,0.00,VWS V14.01,2013-01-14 00:28:00,
2013-01-13 19:30:00,46.8,46.8,30.02,South,183,0.0,0.0,100,0.00,,---,0.00,VWS V14.01,2013-01-14 00:30:00,
2013-01-13 19:32:00,46.8,46.8,30.02,South,183,0.0,0.0,100,0.00,,---,0.00,VWS V14.01,2013-01-14 00:32:00,
2013-01-13 19:36:00,46.8,46.8,30.01,South,183,0.0,0.0,100,0.00,,---,0.00,VWS V14.01,2013-01-14 00:36:00,
2013-01-13 19:38:00,46.8,46.8,30.01,South,183,0.0,0.0,100,0.00,,---,0.00,VWS V14.01,2013-01-14 00:38:00,
2013-01-13 19:44:00,46.8,46.8,30.02,South,183,0.0,0.0,100,0.00,,---,0.00,VWS V14.01,2013-01-14 00:44:00,
2013-01-13 19:45:00,46.8,46.8,30.02,South,183,0.0,0.0,100,0.00,,---,0.00,VWS V14.01,2013-01-14 00:45:00,
2013-01-13 19:46:00,46.8,46.8,30.01,South,183,0.0,0.0,100,0.00,,---,0.00,VWS V14.01,2013-01-14 00:46:00,
2013-01-13 19:50:00,46.8,46.8,30.00,South,183,0.0,0.0,100,0.00,,---,0.00,VWS V14.01,2013-01-14 00:50:00,
2013-01-13 19:54:00,46.8,46.8,30.01,South,183,0.0,0.0,100,0.00,,---,0.00,VWS V14.01,2013-01-14 00:54:00,
2013-01-13 19:56:00,46.8,46.8,30.01,South,183,0.0,0.0,100,0.00,,---,0.00,VWS V14.01,2013-01-14 00:56:00,
2013-01-13 19:58:00,46.8,46.8,30.01,South,183,0.0,0.0,100,0.00,,---,0.00,VWS V14.01,2013-01-14 00:58:00,
2013-01-13 20:00:00,46.8,46.8,30.01,South,183,0.0,0.0,100,0.00,,---,0.00,VWS V14.01,2013-01-14 01:00:00,
2013-01-13 20:02:00,46.8,46.8,30.01,South,183,0.0,0.0,100,0.00,,---,0.00,VWS V14.01,2013-01-14 01:02:00,
2013-01-13 20:04:00,46.8,46.8,30.01,South,183,0.0,0.0,100,0.00,,---,0.00,VWS V14.01,2013-01-14 01:04:00,
2013-01-13 20:06:00,46.7,46.7,30.02,South,183,0.0,0.0,100,0.00,,---,0.00,VWS V14.01,2013-01-14 01:06:00,
2013-01-13 20:10:00,46.5,46.5,30.01,South,183,0.0,0.0,100,0.00,,---,0.00,VWS V14.01,2013-01-14 01:10:00,
2013-01-13 20:15:00,46.5,46.5,30.00,South,183,0.0,0.0,100,0.00,,---,0.00,VWS V14.01,2013-01-14 01:15:00,
2013-01-13 20:16:00,46.5,46.5,30.00,South,183,0.0,0.0,100,0.00,,---,0.00,VWS V14.01,2013-01-14 01:16:00,
2013-01-13 20:20:00,46.5,46.5,30.00,South,183,0.0,0.0,100,0.00,,---,0.00,VWS V14.01,2013-01-14 01:20:00,
2013-01-13 20:22:00,46.5,46.5,30.00,South,183,0.0,0.0,100,0.00,,---,0.00,VWS V14.01,2013-01-14 01:22:00,
2013-01-13 20:25:00,46.5,46.5,30.00,South,183,0.0,0.0,100,0.00,,---,0.00,VWS V14.01,2013-01-14 01:25:00,
2013-01-13 20:29:00,46.5,46.5,30.00,South,183,0.0,0.0,100,0.00,,---,0.00,VWS V14.01,2013-01-14 01:29:00,
2013-01-13 20:30:00,46.5,46.5,30.00,South,183,0.0,0.0,100,0.00,,---,0.00,VWS V14.01,2013-01-14 01:30:00,
2013-01-13 20:33:00,46.4,46.4,30.00,South,183,0.0,0.0,100,0.00,,---,0.00,VWS V14.01,2013-01-14 01:33:00,
2013-01-13 20:35:00,46.4,46.4,30.00,South,183,0.0,0.0,100,0.00,,---,0.00,VWS V14.01,2013-01-14 01:35:00,
2013-01-13 20:39:00,46.4,46.4,30.01,South,183,0.0,0.0,100,0.00,,---,0.00,VWS V14.01,2013-01-14 01:39:00,
2013-01-13 20:41:00,46.4,46.4,30.00,South,183,0.0,0.0,100,0.00,,---,0.00,VWS V14.01,2013-01-14 01:41:00,
2013-01-13 20:43:00,46.4,46.4,30.00,South,183,0.0,0.0,100,0.00,,---,0.00,VWS V14.01,2013-01-14 01:43:00,
2013-01-13 20:45:00,46.4,46.4,30.00,South,183,0.0,0.0,100,0.00,,---,0.00,VWS V14.01,2013-01-14 01:45:00,
2013-01-13 20:49:00,46.5,46.5,29.99,South,183,0.0,0.0,100,0.00,,---,0.00,VWS V14.01,2013-01-14 01:49:00,
2013-01-13 20:51:00,46.5,46.5,30.00,South,183,0.0,0.0,100,0.00,,---,0.00,VWS V14.01,2013-01-14 01:51:00,
2013-01-13 20:55:00,46.5,46.5,30.00,South,183,0.0,0.0,100,0.01,,---,0.01,VWS V14.01,2013-01-14 01:55:00,
2013-01-13 20:57:00,46.4,46.4,30.00,South,183,0.0,0.0,100,0.01,,---,0.01,VWS V14.01,2013-01-14 01:57:00,
2013-01-13 21:00:00,46.4,46.4,30.00,South,183,0.0,1.0,100,0.01,,---,0.01,VWS V14.01,2013-01-14 02:00:00,
2013-01-13 21:01:00,46.4,46.4,30.00,South,183,0.0,0.0,100,0.01,,---,0.01,VWS V14.01,2013-01-14 02:01:00,
2013-01-13 21:03:00,46.4,46.4,30.00,South,183,0.0,0.0,100,0.01,,---,0.01,VWS V14.01,2013-01-14 02:03:00,
2013-01-13 21:07:00,46.4,46.4,30.00,South,183,0.0,0.0,100,0.01,,---,0.01,VWS V14.01,2013-01-14 02:07:00,
2013-01-13 21:09:00,46.4,46.4,30.00,South,183,0.0,0.0,100,0.01,,---,0.01,VWS V14.01,2013-01-14 02:09:00,
2013-01-13 21:15:00,46.4,46.4,29.99,South,183,0.0,0.0,100,0.01,,---,0.01,VWS V14.01,2013-01-14 02:15:00,
2013-01-13 21:17:00,46.4,46.4,29.99,South,183,0.0,0.0,100,0.01,,---,0.01,VWS V14.01,2013-01-14 02:17:00,
2013-01-13 21:21:00,46.4,46.4,29.99,South,183,0.0,0.0,100,0.01,,---,0.01,VWS V14.01,2013-01-14 02:21:00,
2013-01-13 21:23:00,46.4,46.4,30.00,South,183,0.0,0.0,100,0.01,,---,0.01,VWS V14.01,2013-01-14 02:23:00,
2013-01-13 21:29:00,46.2,46.2,30.00,South,183,0.0,0.0,100,0.01,,---,0.01,VWS V14.01,2013-01-14 02:29:00,
2013-01-13 21:30:00,46.2,46.2,30.00,South,183,0.0,0.0,100,0.01,,---,0.01,VWS V14.01,2013-01-14 02:30:00,
2013-01-13 21:33:00,46.2,46.2,30.00,South,183,0.0,0.0,100,0.01,,---,0.01,VWS V14.01,2013-01-14 02:33:00,
2013-01-13 21:35:00,46.2,46.2,30.00,South,183,0.0,0.0,100,0.01,,---,0.01,VWS V14.01,2013-01-14 02:35:00,
2013-01-13 21:41:00,46.2,46.2,30.00,South,183,0.0,0.0,100,0.01,,---,0.01,VWS V14.01,2013-01-14 02:41:00,
2013-01-13 21:43:00,46.2,46.2,30.00,South,183,0.0,0.0,100,0.01,,---,0.01,VWS V14.01,2013-01-14 02:43:00,
2013-01-13 21:45:00,46.2,46.2,30.00,South,183,0.0,0.0,100,0.01,,---,0.01,VWS V14.01,2013-01-14 02:45:00,
2013-01-13 21:51:00,46.1,46.1,30.00,South,183,0.0,0.0,100,0.01,,---,0.01,VWS V14.01,2013-01-14 02:51:00,
2013-01-13 21:53:00,46.2,46.2,30.00,South,183,0.0,0.0,100,0.01,,---,0.01,VWS V14.01,2013-01-14 02:53:00,
2013-01-13 21:55:00,46.2,46.2,30.00,South,183,0.0,0.0,100,0.01,,---,0.01,VWS V14.01,2013-01-14 02:55:00,